User: anonymous   Login
Location: Unspecified
(0.0000°N, 0.0000°E)
Time: 09:21:17
(UTC+00:00)
Language:

DOVE 2 - Orbit

View from above orbital plane
View from above orbital plane
View from above satellite
View from above satellite

Ground track
Ground track

The orbit data is extracted from the following two-line orbital elements,

1 39132U 13015C   17086.85632140 +.00000576 +00000-0 +50611-4 0  9994
2 39132 064.8775 174.2230 0033548 293.8739 065.8880 15.06456811216247
Epoch (UTC): 27 March 2017 20:33:06
Eccentricity: 0.0033548
inclination: 64.8775°
perigee height: 524 km
apogee height: 570 km
right ascension of ascending node: 174.2230°
argument of perigee: 293.8739°
revolutions per day: 15.06456811
mean anomaly at epoch: 65.8880°
orbit number at epoch: 21624

The dashed part of the orbit path shows where the satellite is in the earth's shadow,  

DLR